Time,TemperatureF,DewpointF,PressureIn,WindDirection,WindDirectionDegrees,WindSpeedMPH,WindSpeedGustMPH,Humidity,HourlyPrecipIn,Conditions,Clouds,dailyrainin,SoftwareType,DateUTC
2013-10-09 00:06:00,43.4,28.0,29.69,ENE,73,2.0,5.0,56,0.00,,,0.00,weatherlink.com 1.10,2013-10-09 06:06:00,
2013-10-09 00:21:00,44.3,28.0,29.69,ENE,73,0.0,0.0,53,0.00,,,0.00,weatherlink.com 1.10,2013-10-09 06:21:00,
2013-10-09 00:36:00,45.0,27.0,29.69,ENE,73,0.0,0.0,50,0.00,,,0.00,weatherlink.com 1.10,2013-10-09 06:36:00,
2013-10-09 00:51:00,45.3,28.0,29.69,ENE,73,0.0,0.0,51,0.00,,,0.00,weatherlink.com 1.10,2013-10-09 06:51:00,
2013-10-09 01:06:00,44.8,28.0,29.70,ENE,73,0.0,0.0,53,0.00,,,0.00,weatherlink.com 1.10,2013-10-09 07:06:00,
2013-10-09 01:21:00,44.3,29.0,29.70,ENE,73,0.0,0.0,55,0.00,,,0.00,weatherlink.com 1.10,2013-10-09 07:21:00,
2013-10-09 01:36:00,43.9,28.0,29.70,ENE,73,0.0,0.0,54,0.00,,,0.00,weatherlink.com 1.10,2013-10-09 07:36:00,
2013-10-09 01:51:00,43.9,29.0,29.70,ENE,72,0.0,0.0,56,0.00,,,0.00,weatherlink.com 1.10,2013-10-09 07:51:00,
2013-10-09 02:06:00,43.9,28.0,29.69,ENE,72,0.0,0.0,55,0.00,,,0.00,weatherlink.com 1.10,2013-10-09 08:06:00,
2013-10-09 02:21:00,42.7,28.0,29.70,ENE,72,0.0,0.0,57,0.00,,,0.00,weatherlink.com 1.10,2013-10-09 08:21:00,
2013-10-09 02:36:00,42.6,28.0,29.70,ENE,72,0.0,0.0,57,0.00,,,0.00,weatherlink.com 1.10,2013-10-09 08:36:00,
2013-10-09 02:51:00,42.9,28.0,29.70,ENE,72,0.0,0.0,56,0.00,,,0.00,weatherlink.com 1.10,2013-10-09 08:51:00,
2013-10-09 03:06:00,42.7,29.0,29.70,ENE,72,0.0,0.0,58,0.00,,,0.00,weatherlink.com 1.10,2013-10-09 09:06:00,
2013-10-09 03:21:00,43.1,28.0,29.70,ENE,72,0.0,0.0,56,0.00,,,0.00,weatherlink.com 1.10,2013-10-09 09:21:00,
2013-10-09 03:36:00,42.3,28.0,29.70,ENE,72,0.0,0.0,58,0.00,,,0.00,weatherlink.com 1.10,2013-10-09 09:36:00,
2013-10-09 03:51:00,42.3,29.0,29.70,ENE,70,0.0,0.0,59,0.00,,,0.00,weatherlink.com 1.10,2013-10-09 09:51:00,
2013-10-09 04:06:00,42.5,28.0,29.69,ENE,70,0.0,3.0,58,0.00,,,0.00,weatherlink.com 1.10,2013-10-09 10:06:00,
2013-10-09 04:21:00,43.1,28.0,29.69,ENE,70,0.0,0.0,55,0.00,,,0.00,weatherlink.com 1.10,2013-10-09 10:21:00,
2013-10-09 04:36:00,44.0,28.0,29.70,SE,128,0.0,3.0,53,0.00,,,0.00,weatherlink.com 1.10,2013-10-09 10:36:00,
2013-10-09 04:51:00,42.9,28.0,29.69,East,79,0.0,0.0,55,0.00,,,0.00,weatherlink.com 1.10,2013-10-09 10:51:00,
2013-10-09 05:06:00,41.3,28.0,29.69,ENE,72,0.0,4.0,59,0.00,,,0.00,weatherlink.com 1.10,2013-10-09 11:06:00,
2013-10-09 05:21:00,40.7,27.0,29.69,ENE,72,0.0,0.0,59,0.00,,,0.00,weatherlink.com 1.10,2013-10-09 11:21:00,
2013-10-09 05:36:00,40.7,28.0,29.69,ENE,72,0.0,0.0,60,0.00,,,0.00,weatherlink.com 1.10,2013-10-09 11:36:00,
2013-10-09 05:51:00,40.8,28.0,29.69,ENE,76,3.0,4.0,60,0.00,,,0.00,weatherlink.com 1.10,2013-10-09 11:51:00,
2013-10-09 06:06:00,41.0,29.0,29.69,ENE,76,2.0,5.0,62,0.00,,,0.00,weatherlink.com 1.10,2013-10-09 12:06:00,
2013-10-09 06:21:00,40.3,27.0,29.70,ENE,77,0.0,4.0,60,0.00,,,0.00,weatherlink.com 1.10,2013-10-09 12:21:00,
2013-10-09 06:36:00,39.7,27.0,29.70,ENE,78,0.0,4.0,61,0.00,,,0.00,weatherlink.com 1.10,2013-10-09 12:36:00,
2013-10-09 06:51:00,40.0,27.0,29.70,ENE,77,0.0,0.0,60,0.00,,,0.00,weatherlink.com 1.10,2013-10-09 12:51:00,
2013-10-09 07:06:00,40.0,27.0,29.70,East,80,0.0,3.0,60,0.00,,,0.00,weatherlink.com 1.10,2013-10-09 13:06:00,
2013-10-09 07:21:00,39.5,26.0,29.71,East,87,0.0,0.0,60,0.00,,,0.00,weatherlink.com 1.10,2013-10-09 13:21:00,
2013-10-09 07:36:00,39.0,27.0,29.71,East,88,0.0,0.0,62,0.00,,,0.00,weatherlink.com 1.10,2013-10-09 13:36:00,
2013-10-09 07:51:00,39.0,27.0,29.72,East,80,0.0,3.0,63,0.00,,,0.00,weatherlink.com 1.10,2013-10-09 13:51:00,
2013-10-09 08:06:00,41.2,28.0,29.73,East,80,0.0,1.0,60,0.00,,,0.00,weatherlink.com 1.10,2013-10-09 14:06:00,
2013-10-09 08:21:00,44.3,29.0,29.73,East,80,0.0,3.0,55,0.00,,,0.00,weatherlink.com 1.10,2013-10-09 14:21:00,
2013-10-09 08:36:00,45.6,29.0,29.74,NNE,25,0.0,3.0,53,0.00,,,0.00,weatherlink.com 1.10,2013-10-09 14:36:00,
2013-10-09 08:51:00,45.1,28.0,29.74,ENE,75,0.0,0.0,52,0.00,,,0.00,weatherlink.com 1.10,2013-10-09 14:51:00,
2013-10-09 09:06:00,45.0,30.0,29.74,ENE,75,0.0,0.0,55,0.00,,,0.00,weatherlink.com 1.10,2013-10-09 15:06:00,
2013-10-09 09:21:00,48.3,31.0,29.74,NE,56,0.0,0.0,51,0.00,,,0.00,weatherlink.com 1.10,2013-10-09 15:21:00,
2013-10-09 09:36:00,52.2,30.0,29.74,NE,56,0.0,1.0,43,0.00,,,0.00,weatherlink.com 1.10,2013-10-09 15:36:00,
2013-10-09 09:51:00,54.3,31.0,29.74,North,1,0.0,0.0,41,0.00,,,0.00,weatherlink.com 1.10,2013-10-09 15:51:00,
2013-10-09 10:06:00,53.8,30.0,29.73,North,1,0.0,0.0,41,0.00,,,0.00,weatherlink.com 1.10,2013-10-09 16:06:00,
2013-10-09 10:21:00,53.4,29.0,29.73,WSW,240,0.0,5.0,40,0.00,,,0.00,weatherlink.com 1.10,2013-10-09 16:21:00,
2013-10-09 10:37:00,53.6,29.0,29.73,SW,229,0.0,5.0,39,0.00,,,0.00,weatherlink.com 1.10,2013-10-09 16:37:00,
2013-10-09 10:52:00,54.2,30.0,29.73,South,186,0.0,5.0,39,0.00,,,0.00,weatherlink.com 1.10,2013-10-09 16:52:00,
2013-10-09 11:07:00,55.6,29.0,29.72,SW,236,2.0,9.0,37,0.00,,,0.00,weatherlink.com 1.10,2013-10-09 17:07:00,
2013-10-09 11:22:00,56.5,30.0,29.72,South,188,7.0,9.0,36,0.00,,,0.00,weatherlink.com 1.10,2013-10-09 17:22:00,
2013-10-09 11:37:00,56.9,30.0,29.71,WSW,245,4.0,8.0,36,0.00,,,0.00,weatherlink.com 1.10,2013-10-09 17:37:00,
2013-10-09 11:52:00,57.7,29.0,29.71,WSW,238,2.0,10.0,34,0.00,,,0.00,weatherlink.com 1.10,2013-10-09 17:52:00,
2013-10-09 12:07:00,57.8,31.0,29.70,SW,217,3.0,11.0,36,0.00,,,0.00,weatherlink.com 1.10,2013-10-09 18:07:00,
2013-10-09 12:22:00,57.6,29.0,29.70,West,262,2.0,7.0,34,0.00,,,0.00,weatherlink.com 1.10,2013-10-09 18:22:00,
2013-10-09 12:37:00,58.0,29.0,29.69,SW,235,0.0,6.0,33,0.00,,,0.00,weatherlink.com 1.10,2013-10-09 18:37:00,
2013-10-09 12:52:00,60.5,30.0,29.68,West,262,0.0,8.0,32,0.00,,,0.00,weatherlink.com 1.10,2013-10-09 18:52:00,
2013-10-09 13:07:00,60.4,29.0,29.68,WSW,239,4.0,10.0,31,0.00,,,0.00,weatherlink.com 1.10,2013-10-09 19:07:00,
2013-10-09 13:22:00,60.1,28.0,29.67,SW,235,5.0,13.0,30,0.00,,,0.00,weatherlink.com 1.10,2013-10-09 19:22:00,
2013-10-09 13:37:00,61.3,29.0,29.66,WSW,238,5.0,10.0,29,0.00,,,0.00,weatherlink.com 1.10,2013-10-09 19:37:00,
2013-10-09 13:52:00,60.8,27.0,29.65,South,182,2.0,6.0,28,0.00,,,0.00,weatherlink.com 1.10,2013-10-09 19:52:00,
2013-10-09 14:07:00,60.3,29.0,29.65,SSW,210,1.0,6.0,30,0.00,,,0.00,weatherlink.com 1.10,2013-10-09 20:07:00,
2013-10-09 14:22:00,60.5,29.0,29.64,WSW,258,1.0,10.0,30,0.00,,,0.00,weatherlink.com 1.10,2013-10-09 20:22:00,
2013-10-09 14:37:00,61.1,28.0,29.64,West,264,7.0,10.0,28,0.00,,,0.00,weatherlink.com 1.10,2013-10-09 20:37:00,
2013-10-09 14:52:00,61.1,28.0,29.64,SW,231,1.0,10.0,28,0.00,,,0.00,weatherlink.com 1.10,2013-10-09 20:52:00,
2013-10-09 15:07:00,60.5,28.0,29.64,WNW,291,6.0,13.0,29,0.00,,,0.00,weatherlink.com 1.10,2013-10-09 21:07:00,
2013-10-09 15:22:00,60.3,29.0,29.64,WNW,295,4.0,10.0,30,0.00,,,0.00,weatherlink.com 1.10,2013-10-09 21:22:00,
2013-10-09 15:37:00,61.1,28.0,29.64,WSW,243,1.0,4.0,29,0.00,,,0.00,weatherlink.com 1.10,2013-10-09 21:37:00,
2013-10-09 15:52:00,60.9,28.0,29.64,SW,221,4.0,9.0,29,0.00,,,0.00,weatherlink.com 1.10,2013-10-09 21:52:00,
2013-10-09 16:07:00,60.1,29.0,29.64,WSW,240,10.0,12.0,31,0.00,,,0.00,weatherlink.com 1.10,2013-10-09 22:07:00,
2013-10-09 16:22:00,59.5,29.0,29.64,SW,214,5.0,10.0,32,0.00,,,0.00,weatherlink.com 1.10,2013-10-09 22:22:00,
2013-10-09 16:37:00,58.8,29.0,29.65,SSW,197,6.0,9.0,32,0.00,,,0.00,weatherlink.com 1.10,2013-10-09 22:37:00,
2013-10-09 16:52:00,58.6,30.0,29.65,WSW,257,0.0,2.0,34,0.00,,,0.00,weatherlink.com 1.10,2013-10-09 22:52:00,
2013-10-09 17:07:00,57.9,28.0,29.65,WNW,288,3.0,9.0,32,0.00,,,0.00,weatherlink.com 1.10,2013-10-09 23:07:00,
2013-10-09 17:22:00,57.0,28.0,29.66,WNW,285,0.0,2.0,33,0.00,,,0.00,weatherlink.com 1.10,2013-10-09 23:22:00,
2013-10-09 17:37:00,56.3,28.0,29.65,WNW,285,2.0,6.0,34,0.00,,,0.00,weatherlink.com 1.10,2013-10-09 23:37:00,
2013-10-09 18:07:00,54.4,27.0,29.66,WNW,285,0.0,0.0,35,0.00,,,0.00,weatherlink.com 1.10,2013-10-10 00:07:00,
2013-10-09 18:22:00,53.8,27.0,29.66,WSW,252,0.0,1.0,35,0.00,,,0.00,weatherlink.com 1.10,2013-10-10 00:22:00,
2013-10-09 18:37:00,53.0,26.0,29.67,WSW,248,0.0,0.0,35,0.00,,,0.00,weatherlink.com 1.10,2013-10-10 00:37:00,
2013-10-09 18:52:00,52.6,27.0,29.67,ESE,110,0.0,0.0,38,0.00,,,0.00,weatherlink.com 1.10,2013-10-10 00:52:00,
2013-10-09 19:07:00,50.1,29.0,29.67,ENE,70,1.0,1.0,44,0.00,,,0.00,weatherlink.com 1.10,2013-10-10 01:07:00,
2013-10-09 19:23:00,48.5,29.0,29.67,ENE,70,0.0,1.0,47,0.00,,,0.00,weatherlink.com 1.10,2013-10-10 01:23:00,
2013-10-09 19:38:00,47.9,29.0,29.68,ENE,77,0.0,2.0,49,0.00,,,0.00,weatherlink.com 1.10,2013-10-10 01:38:00,
2013-10-09 19:53:00,47.3,28.0,29.68,ENE,76,2.0,3.0,48,0.00,,,0.00,weatherlink.com 1.10,2013-10-10 01:53:00,
2013-10-09 20:08:00,46.2,28.0,29.68,East,79,1.0,4.0,50,0.00,,,0.00,weatherlink.com 1.10,2013-10-10 02:08:00,
2013-10-09 20:23:00,45.4,28.0,29.68,East,87,3.0,4.0,50,0.00,,,0.00,weatherlink.com 1.10,2013-10-10 02:23:00,
2013-10-09 20:38:00,45.1,27.0,29.68,East,82,1.0,3.0,50,0.00,,,0.00,weatherlink.com 1.10,2013-10-10 02:38:00,
2013-10-09 20:53:00,45.0,27.0,29.68,ENE,77,0.0,3.0,50,0.00,,,0.00,weatherlink.com 1.10,2013-10-10 02:53:00,
2013-10-09 21:08:00,44.9,27.0,29.69,ENE,77,0.0,0.0,49,0.00,,,0.00,weatherlink.com 1.10,2013-10-10 03:08:00,
2013-10-09 21:23:00,44.3,27.0,29.69,ENE,74,0.0,0.0,50,0.00,,,0.00,weatherlink.com 1.10,2013-10-10 03:23:00,
2013-10-09 21:38:00,43.8,26.0,29.69,ENE,65,0.0,3.0,50,0.00,,,0.00,weatherlink.com 1.10,2013-10-10 03:38:00,
2013-10-09 21:52:00,43.6,26.0,29.70,ENE,75,0.0,0.0,50,0.00,,,0.00,weatherlink.com 1.10,2013-10-10 03:52:00,
2013-10-09 22:08:00,44.7,25.0,29.70,ENE,72,0.0,4.0,47,0.00,,,0.00,weatherlink.com 1.10,2013-10-10 04:08:00,
2013-10-09 22:23:00,47.4,25.0,29.70,ENE,72,0.0,0.0,41,0.00,,,0.00,weatherlink.com 1.10,2013-10-10 04:23:00,
2013-10-09 22:38:00,46.7,25.0,29.71,ENE,70,0.0,0.0,43,0.00,,,0.00,weatherlink.com 1.10,2013-10-10 04:38:00,
2013-10-09 22:53:00,45.8,25.0,29.72,ENE,70,0.0,0.0,44,0.00,,,0.00,weatherlink.com 1.10,2013-10-10 04:53:00,
2013-10-09 23:08:00,45.6,26.0,29.72,WSW,254,0.0,1.0,46,0.00,,,0.00,weatherlink.com 1.10,2013-10-10 05:08:00,
2013-10-09 23:23:00,46.0,26.0,29.72,SSW,203,0.0,6.0,45,0.00,,,0.00,weatherlink.com 1.10,2013-10-10 05:23:00,
2013-10-09 23:38:00,45.2,27.0,29.72,NE,44,0.0,4.0,49,0.00,,,0.00,weatherlink.com 1.10,2013-10-10 05:38:00,
2013-10-09 23:53:00,43.8,27.0,29.72,ENE,63,0.0,4.0,52,0.00,,,0.00,weatherlink.com 1.10,2013-10-10 05:53:00,